Preview of NWS' New Version of Forecast
This preview is not operational and should not be used for support decisions.

Regional Weather Roundup (RWR)

Issued by National Weather Service (NWS)

                            
000
ASUS44 KJAN 150010
RWRMS 

MISSISSIPPI HOURLY WEATHER ROUNDUP
NATIONAL WEATHER SERVICE JACKSON MS
700 PM CDT SAT SEP 14 2019

NOTE: "FAIR: INDICATES FEW OR NO CLOUDS BELOW 12,000 FEET WITH NO
SIGNIFICANT WEATHER AND/OR OBSTRUCTIONS TO VISIBILITY.

MSZ001>002-007>008-010>013-018>021-025>028-034>036-150100-
NORTHWEST MISSISSIPPI
  
CITY           SKY/WX    TMP DP  RH WIND       PRES   REMARKS
BATESVILLE     FAIR      88  75  66 CALM      30.09S HX  97           
CLARKSDALE       N/A     90  70  51 NE6       30.09S HX  95           
CLEVELAND      FAIR      89  69  51 E7        30.07S HX  94           
GREENWOOD      FAIR      84  73  69 CALM      30.08R HX  90           
6HR MIN TEMP:  84; 6HR MAX TEMP:  98;                                

GREENVILLE     FAIR      88  69  53 E8        30.06S HX  92           
6HR MIN TEMP:  88; 6HR MAX TEMP:  97;                                

OLIVE BRANCH   PTCLDY    90  68  48 E6        30.11S HX  93           
OXFORD         FAIR      86  68  54 E3        30.12S                  
TUNICA           N/A     82  70  65 N5        30.10F                  
WINONA         FAIR      86  73  64 CALM      30.10S HX  92           
$$

MSZ003>006-009-014>017-022>024-029>033-037>039-150100-
NORTHEAST MISSISSIPPI
  
CITY           SKY/WX    TMP DP  RH WIND       PRES   REMARKS
ABERDEEN       MOCLDY    82  64  54 CALM      30.11S                  
COLUMBUS AFB   FAIR      87  73  61 CALM      30.09S HX  94           
6HR MIN TEMP:  87; 6HR MAX TEMP:  93;                                

CORINTH        FAIR      84  73  70 CALM      30.12R HX  91           
GOLDN TRIANGLE FAIR      89  74  60 NE3       30.10S HX  98           
STARKVILLE     FAIR      86  70  58 CALM      30.11S HX  90           
TUPELO         FAIR      87  69  54 NE5       30.11R HX  91           
6HR MIN TEMP:  87; 6HR MAX TEMP:  94;                                

$$

MSZ040-058-150100-
CENTRAL MISSISSIPPI
  
CITY           SKY/WX    TMP DP  RH WIND       PRES   REMARKS
JACKSON INTL   FAIR      88  65  46 NE5       30.07S HX  90           
6HR MIN TEMP:  88; 6HR MAX TEMP:  95;                                

JACKSON HAWKNS FAIR      90  64  42 E6        30.08R HX  91           
6HR MIN TEMP:  90; 6HR MAX TEMP:  95;                                

MADISON        FAIR      88  66  48 CALM      30.09S HX  90           
MERIDIAN KEY   FAIR      90  68  48 NE7       30.08S HX  94           
6HR MIN TEMP:  90; 6HR MAX TEMP:  98;                                

MERIDIAN NAS   FAIR      88  69  53 NE3       30.09S HX  92           
6HR MIN TEMP:  88; 6HR MAX TEMP:  95;                                

RAYMOND          N/A     88  72  58 CALM      30.07R HX  94           
VICKSBURG VKS  CLEAR     90  70  51 NE3       30.05S HX  95           
$$

MSZ059>079-150100-
SOUTH MISSISSIPPI
  
CITY           SKY/WX    TMP DP  RH WIND       PRES   REMARKS
BROOKHAVEN     FAIR      84  68  58 CALM      30.09S                  
HATTIESBURG    FAIR      87  67  51 E5        30.06S HX  90           
LAUREL         CLEAR     88  68  52 E6        30.06S HX  91           
MCCOMB         FAIR      87  69  54 CALM      30.07R HX  91           
6HR MIN TEMP:  87; 6HR MAX TEMP:  94;                                

NATCHEZ        FAIR      88  64  44 E7        30.06R                  
6HR MIN TEMP:  88; 6HR MAX TEMP:  96;                                

PINE BELT        N/A     83  74  74 CALM      30.07S                  
6HR MIN TEMP:  83; 6HR MAX TEMP:  93;                                

$$

MSZ080>082-150100-
COASTAL MISSISSIPPI
  
CITY           SKY/WX    TMP DP  RH WIND       PRES   REMARKS
BAY ST LOUIS   PTCLDY    81  75  83 VRB3      30.03S                  
BILOXI         CLOUDY    86  72  63 SE6       30.03S HX  92           
6HR MIN TEMP:  86; 6HR MAX TEMP:  93;                                

PASCAGOULA     FAIR      83  72  69 CALM      30.03S                  
6HR MIN TEMP:  83; 6HR MAX TEMP:  95;                                

GULFPORT       FAIR      86  71  60 CALM      30.02S HX  91           
6HR MIN TEMP:  86; 6HR MAX TEMP:  93;                                

$$

LAZ007>009-015>016-023>026-150100-
NORTHEAST LOUISIANA
  
CITY           SKY/WX    TMP DP  RH WIND       PRES   REMARKS
BASTROP        FAIR      84  73  67 CALM      30.06S HX  90           
TALLULAH/VBURG FAIR      91  67  44 NE7       30.05S HX  94           
6HR MIN TEMP:  91; 6HR MAX TEMP:  99;                                

VIDALIA        FAIR      91  62  37 E7        30.04R HX  91           
$$